Search for airport 
image banner adimage banner ad
image banner ad

VDBG - Battambang Airport

Located in Battambang, Cambodia

ICAO - VDBG, IATA - BBM

Data provided by Airmate  

General information

Coordinates: N13°5'44" E103°13'27"
Elevation is 59 feet MSL.
 
Rated:
View ratings: [VIEW]


View others Airports in Baat Dambang

Operational data

Open for public use
Current time UTC:
Current local time:
Weather at : VDSR - Siem Reap International ( 73 km )
METAR: VDSR 122200Z 00000KT 8000 SCT015 26/26 Q1004
TAF: TAF VDSR 121700Z 1218/1312 17007KT 9999 SCT017 TEMPO 1206/1211 5000 TSRA SCT015 FEW017CB SCT040
View NOTAMs / SUP AIP / TFR affecting this airport [VIEW]
Communications frequencies: [VIEW]

Runways:

RWY identifierQFULength (ft)Width (ft)SurfaceLDA (ft)
0769°5250112ASP
2500

Airport contact information

Address: Battambang Cambodia

Satellite view of VDBG